RH
82 80 76 74 76 71 58 62 92 58 79 74 71 74 42 60 39 37 36 40 38 38 34 40 40 42 41 37 36 39 51 59 64 49 35 39 39 86 100 95 94 90 90 48
82 81 76 76 75 64 44 75 83 53 81 99 85 50 53 48 42 36 38 40 37 34 38 43 36 35 37 36 38 45 56 63 67 32 32 63 87 89 93 98 99 86 91 60
82 79 76 76 76 72 49 71 97 88 88 89 71 59 51 47 40 40 36 37 36 40 41 36 40 37 34 42 36 58 53 45 58 59 35 28 38 42 50 62 90 72 76 56
83 79 74 75 78 70 47 97 89 69 86 89 84 76 66 59 59 49 51 45 45 44 49 39 39 37 35 36 41 40 43 77 45 36 32 37 44 40 38 53 58 76 53 40
82 81 78 78 78 67 48 96 85 69 54 61 59 76 67 76 77 82 70 73 86 77 66 57 58 62 53 48 41 49 50 82 64 73 40 34 36 29 28 27 27 30 31 31
83 83 82 81 77 56 51 64 63 62 64 54 51 48 54 68 55 67 61 65 68 75 74 64 62 59 51 49 51 53 59 65 77 74 36 38 64 36 26 23 20 22 29 23
83 83 83 83 77 58 47 55 58 78 65 45 34 46 52 53 48 52 44 48 50 46 41 40 40 42 42 41 42 44 58 55 62 78 49 89 33 17 16 20 16 16 20 19
83 84 84 84 82 69 48 59 75 74 76 44 43 46 44 41 43 47 44 39 35 37 46 56 64 43 38 36 29 31 37 66 70 78 53 32 22 18 20 23 25 17 17 15
83 84 83 83 82 77 65 61 69 73 94 62 43 45 44 41 41 42 48 42 41 44 47 56 64 53 38 40 31 25 29 41 69 61 68 63 25 16 14 17 36 18 16 23
85 85 84 83 80 80 64 56 72 62 92 46 52 61 48 42 44 45 42 38 43 46 61 75 61 49 30 43 41 52 46 78 78 62 70 47 24 18 18 40 38 20 27 32
85 84 85 84 81 82 68 64 75 62 82 51 56 48 54 50 59 61 43 48 52 54 71 63 50 49 33 32 27 38 52 57 57 50 70 72 20 20 34 32 24 30 26 25
82 82 82 81 79 81 82 83 75 76 98 64 58 52 46 44 41 52 52 52 45 48 69 62 59 56 51 42 53 26 60 47 57 46 40 28 22 25 25 28 28 27 26 26
82 82 80 79 78 76 83 85 92 94 100 96 93 70 52 54 51 44 79 55 49 50 48 68 67 66 37 56 43 37 30 28 63 51 41 33 33 27 28 26 28 23 23 31
81 81 80 80 78 79 74 84 85 93 100 99 58 47 59 46 52 54 52 53 54 61 73 87 77 66 45 50 39 43 43 39 46 52 43 38 36 34 35 35 33 34 34 35
80 76 75 76 78 76 79 90 94 96 99 90 60 47 44 42 48 56 58 63 67 87 95 91 80 56 60 48 48 59 41 47 66 71 50 49 42 39 38 43 43 36 36 37
77 73 72 77 79 87 82 95 81 88 92 93 82 43 49 46 48 49 54 58 68 89 93 85 75 58 76 86 57 36 29 28 32 41 33 37 42 39 35 38 37 35 35 36
77 75 78 81 87 70 66 59 64 82 90 100 82 62 43 55 53 57 60 62 72 84 87 84 58 51 86 80 71 42 32 29 29 29 33 40 35 38 33 33 32 36 33 32
76 79 79 83 73 70 60 62 77 72 78 82 88 67 61 52 59 72 73 85 90 93 78 69 65 52 60 82 41 33 28 28 37 42 42 42 44 47 40 34 33 34 35 34
76 81 80 64 64 69 55 75 78 75 74 83 81 70 71 55 57 65 87 87 91 60 83 68 64 65 79 45 36 35 40 47 53 79 78 67 63 52 46 47 45 43 40 39
80 60 79 100 58 73 72 91 87 99 91 80 79 54 74 62 65 70 72 80 72 81 54 44 80 62 43 41 41 42 72 90 95 98 73 59 60 56 53 49 47 49 48 67
65 93 71 61 76 81 82 92 90 77 86 69 62 59 74 59 85 86 80 91 75 91 68 85 83 70 57 74 86 93 94 88 66 59 60 81 94 94 84 65 61 61 71 79
58 57 73 75 78 79 75 81 72 78 60 58 68 69 87 83 91 95 95 92 91 82 80 94 76 85 83 91 93 96 92 68 62 69 97 96 96 96 96 95 87 77 69 85
59 65 86 77 85 91 90 80 73 77 70 76 93 97 100 100 100 97 93 95 80 58 84 66 88 88 68 76 85 81 66 65 76 95 94 94 97 96 98 97 97 94 93 98
65 84 71 78 85 74 59 55 64 70 80 70 81 97 98 98 97 90 96 69 72 92 92 76 90 95 76 76 77 75 78 80 93 96 93 94 98 98 100 100 100 100 100 99
84 76 80 81 61 70 71 72 69 61 60 65 88 91 98 98 100 89 85 98 92 92 90 88 84 79 72 75 76 79 86 89 91 96 98 97 99 100 100 100 100 99 98 97
76 78 86 74 86 89 91 87 82 54 55 68 81 95 93 96 93 97 95 93 90 88 85 78 68 69 72 79 82 86 94 96 100 100 97 96 96 99 100 99 97 96 98 99
71 85 79 80 86 90 91 75 66 57 76 90 71 93 75 77 80 75 86 91 87 81 76 71 68 76 76 82 89 96 98 95 94 99 95 96 94 95 96 97 96 98 99 98
Wind_Speed
15 15 13 10 8 5 1 0 1 4 3 5 2 7 3 1 6 3 7 8 10 10 8 10 8 8 4 4 7 10 4 5 9 9 11 10 9 1 3 4 6 4 6 2
14 14 13 11 8 0 2 2 1 3 4 3 5 2 4 5 6 6 3 6 8 6 13 12 13 12 1 2 4 3 5 3 9 10 9 4 1 4 4 1 4 3 4 4
14 14 14 12 10 6 1 1 2 2 1 3 2 3 6 7 5 9 11 9 8 10 11 11 8 9 6 3 4 1 3 11 14 15 18 16 18 14 11 8 6 9 10 22
16 16 15 13 10 6 2 2 2 2 2 3 1 2 2 5 4 5 4 6 14 14 13 15 17 15 13 10 11 11 11 15 17 19 19 17 18 19 18 16 16 14 22 23
17 16 15 13 12 6 3 4 2 2 3 2 3 5 3 2 2 4 1 4 4 3 11 10 9 5 5 8 5 9 6 6 7 12 14 16 20 20 20 19 20 21 25 23
14 15 15 14 12 1 3 2 1 2 2 3 4 3 2 2 2 2 1 2 2 2 4 3 3 6 9 11 12 11 9 7 6 16 14 14 14 18 21 22 23 20 19 22
13 14 14 14 12 1 3 2 1 2 2 4 5 4 3 4 4 6 3 6 6 3 1 8 11 13 15 16 17 14 14 14 11 13 16 19 16 20 22 22 19 18 20 22
14 14 14 14 13 7 3 3 1 1 3 5 5 8 8 7 7 10 10 10 9 7 7 6 6 8 11 17 20 21 18 15 13 15 17 21 23 23 22 24 17 17 21 23
13 12 11 12 14 9 3 3 2 1 2 3 3 4 3 6 5 6 5 3 2 4 5 5 9 8 10 6 5 4 10 14 13 14 17 22 21 20 15 9 16 23 19 17
11 10 9 10 14 12 4 3 4 3 3 4 5 4 4 3 4 5 3 3 4 5 5 8 10 13 13 13 17 11 9 9 14 15 19 22 23 21 15 15 19 13 9 13
10 10 10 11 12 15 6 2 7 5 4 7 8 9 10 7 5 7 3 5 6 4 6 5 8 9 11 14 18 19 15 14 14 16 19 27 17 19 21 18 15 13 17 23
9 8 8 9 12 15 11 3 5 4 3 6 4 11 15 17 16 9 5 7 4 4 5 4 5 7 8 14 17 16 16 14 14 19 17 22 22 23 21 19 23 26 24 24
7 6 6 6 8 10 15 4 5 3 3 6 7 12 13 15 19 13 8 8 13 11 8 7 6 10 10 14 15 19 19 18 17 21 27 28 27 27 26 26 27 27 24 23
7 6 5 6 8 10 13 6 5 3 1 4 4 1 8 8 14 17 17 16 6 6 6 6 8 11 9 15 19 19 16 18 22 24 28 27 26 24 22 23 21 20 19 17
7 5 4 5 5 6 7 3 4 4 3 3 7 9 14 13 11 14 17 16 14 7 5 8 11 11 12 14 17 21 15 22 16 19 23 20 24 23 21 20 23 20 19 19
6 4 4 6 6 13 4 3 6 7 4 3 4 2 7 4 7 12 15 12 9 5 4 7 8 19 9 9 16 26 20 20 20 22 24 24 25 26 26 24 23 20 19 18
4 6 6 8 14 6 2 2 4 9 4 2 5 4 1 2 4 4 6 9 5 6 6 9 14 12 9 11 20 33 21 24 24 23 23 22 22 19 19 17 16 16 16 16
4 6 7 13 8 6 4 4 8 8 2 2 4 5 4 2 3 3 4 4 4 6 5 6 9 8 8 11 21 22 19 17 16 17 20 21 22 23 21 20 19 18 17 15
8 13 14 4 3 3 3 6 7 1 4 3 3 4 4 1 3 2 3 3 6 6 7 8 6 9 10 16 18 19 20 19 20 18 18 19 20 21 19 19 18 18 16 15
16 4 2 2 2 4 5 4 3 3 4 4 5 4 7 3 3 3 3 4 4 4 6 3 5 11 20 20 20 19 20 17 14 15 20 21 20 19 20 19 16 14 11 10
3 2 2 4 2 3 2 2 4 3 4 5 4 7 7 4 6 5 4 3 3 5 2 4 4 6 4 11 11 12 11 15 18 18 21 20 19 17 17 17 17 12 12 10
2 4 3 3 2 1 2 3 2 5 4 4 5 5 6 4 6 6 5 4 4 6 4 5 4 2 9 11 12 12 13 18 19 19 19 18 17 15 15 14 10 9 10 3
3 2 3 3 2 4 5 5 4 4 3 3 4 7 3 4 5 4 4 6 6 1 4 4 1 8 13 14 12 15 16 18 19 18 18 16 15 13 9 9 9 8 7 8
2 3 3 4 5 5 5 5 4 3 5 8 8 8 4 3 5 3 5 5 3 5 3 5 8 12 15 14 13 15 18 19 17 17 17 16 12 8 5 4 5 8 9 9
2 3 4 6 5 4 5 6 7 9 8 8 8 5 4 4 5 5 5 5 5 1 5 6 9 13 14 15 16 16 15 15 15 15 13 13 11 7 6 5 4 7 9 9
2 4 4 4 5 7 4 6 7 6 5 7 4 5 4 3 3 4 5 4 5 5 8 9 11 14 14 14 14 14 13 14 13 11 12 11 9 7 4 5 4 5 7 10
4 4 5 7 7 8 6 4 5 3 4 3 4 5 3 5 4 4 3 3 6 7 7 7 10 12 14 14 12 12 12 13 13 12 11 9 8 4 1 4 4 6 7 7
Wind_Direction
146 136 138 135 120 121 132 342 164 24 244 185 218 215 227 341 224 225 246 267 256 257 266 268 263 257 226 177 282 276 149 258 271 283 299 320 285 6 32 344 2 302 279 335
148 142 139 139 127 208 141 95 72 82 279 207 219 175 233 269 245 235 245 248 243 255 254 258 241 261 71 206 265 277 164 215 299 283 178 123 236 180 155 156 218 256 303 298
155 148 147 141 134 128 180 119 141 87 196 341 279 241 254 249 241 254 246 262 252 243 240 232 258 235 216 253 258 130 217 261 258 270 290 308 285 278 258 280 252 277 248 281
160 157 151 147 138 138 176 11 86 31 170 183 154 260 293 243 235 229 247 240 242 250 257 251 250 259 260 257 260 250 245 255 261 266 276 292 285 282 281 270 261 263 279 278
162 157 152 151 140 144 103 123 184 198 127 281 223 182 201 352 92 325 175 296 52 339 263 257 282 334 292 265 221 244 228 259 283 274 275 267 270 271 273 274 269 266 272 280
161 156 154 152 149 213 85 107 110 299 145 176 233 211 236 207 318 114 122 91 306 191 234 221 261 287 280 280 282 271 260 261 251 266 275 274 264 262 269 270 269 272 274 278
153 156 157 155 162 95 99 98 121 181 176 233 233 225 227 240 276 285 261 277 272 72 6 277 252 249 257 257 253 248 255 255 263 272 281 262 269 270 265 268 277 281 275 272
153 153 159 166 164 142 116 115 116 174 252 246 239 243 259 268 259 258 266 265 272 301 277 269 266 253 250 251 247 244 234 246 260 257 259 273 274 268 270 268 281 299 288 290
155 158 158 166 167 144 140 133 88 164 281 224 251 249 254 272 260 253 240 251 252 265 255 250 251 254 264 255 264 235 252 228 245 249 251 259 267 275 283 316 278 269 270 278
156 157 161 167 168 162 176 138 193 214 244 237 216 239 279 258 262 275 263 262 221 234 232 250 257 265 263 260 267 251 233 227 245 251 258 265 273 282 288 246 263 287 310 312
163 169 171 172 175 170 179 147 191 214 237 271 221 236 240 233 239 270 73 270 203 231 239 243 249 255 261 266 263 261 263 263 256 253 254 264 267 265 250 263 274 298 301 303
158 162 173 187 195 186 193 228 170 208 241 297 283 258 258 256 259 271 236 260 260 234 254 249 290 261 258 266 270 269 263 259 268 263 276 285 285 281 283 287 283 284 294 293
148 159 178 196 204 201 193 224 147 165 240 253 243 251 250 235 241 243 241 238 246 242 253 284 274 264 269 265 262 274 266 262 257 269 262 268 273 275 276 277 278 282 279 282
172 185 201 229 229 216 201 208 186 185 282 266 254 198 240 234 220 222 227 245 243 259 260 245 250 257 261 263 274 277 270 279 276 276 277 280 276 274 279 283 278 273 279 278
162 169 205 230 239 232 194 162 189 150 249 311 291 289 269 253 228 218 220 228 238 233 233 232 245 250 268 262 268 258 264 268 265 267 270 273 279 283 277 275 277 278 279 277
169 197 251 229 203 149 147 213 175 193 223 270 278 322 255 253 237 230 232 227 232 209 216 240 246 250 250 264 266 273 273 266 264 270 276 273 269 271 277 276 277 276 274 277
193 251 232 182 156 186 239 338 73 169 157 252 280 265 213 288 254 216 219 212 204 215 229 234 249 250 218 259 265 275 286 288 282 279 281 281 278 280 280 275 269 269 264 265
235 157 141 134 130 131 204 126 141 161 157 248 273 271 278 161 246 237 187 196 201 216 239 248 251 259 233 252 256 273 281 288 294 296 291 289 296 292 283 275 272 262 262 266
146 125 125 141 205 218 62 141 171 224 278 260 230 267 299 86 258 283 215 238 234 223 232 228 232 230 231 252 277 294 301 294 297 292 289 280 278 281 282 279 269 260 259 259
127 149 161 171 123 92 151 173 203 214 201 229 252 233 253 261 261 273 286 205 247 252 227 223 231 254 261 272 274 294 304 303 290 287 297 297 286 279 277 270 268 266 258 278
178 173 165 69 131 203 197 231 237 195 238 202 231 233 251 204 236 239 208 231 249 253 216 216 236 250 306 349 307 289 295 304 299 305 300 294 281 278 274 268 257 244 238 242
116 82 106 161 190 195 250 250 221 229 261 189 238 246 227 233 207 227 198 249 221 254 145 236 239 44 293 302 305 305 315 312 316 316 295 293 288 273 258 250 241 254 257 211
144 174 93 221 143 219 228 211 211 236 225 245 251 265 250 211 204 220 242 232 240 336 227 252 217 355 344 337 333 325 324 325 326 313 317 315 307 303 237 228 230 219 138 145
217 197 210 226 182 238 220 260 311 309 254 284 288 280 262 223 186 226 244 225 252 245 278 2 2 343 336 334 333 330 332 334 327 321 328 327 333 340 10 81 125 135 151 148
211 212 240 223 247 266 272 284 278 272 274 282 291 258 235 220 228 203 256 231 221 33 2 324 340 330 331 329 334 333 330 332 325 330 331 331 341 1 29 49 91 120 129 139
227 231 245 235 264 267 252 260 268 283 297 295 246 263 276 259 276 246 225 270 52 354 330 325 328 333 335 330 332 328 323 326 323 330 332 333 337 343 17 53 79 127 135 138
234 234 234 258 279 272 278 260 275 298 290 280 295 263 264 301 254 264 51 14 327 319 325 328 332 331 332 330 323 324 324 330 332 331 337 339 334 325 93 91 78 97 92 100